DW9945 Weather Reports


time (UTC)temp
C
wind
direction
speed
KPH
gust
KPH
rain 1hr
cm
rain 24hr
cm
rain mn
cm
humidity
%
barometer
mb
20260902205514 26 10 0.0 0.0 0.00 0.00 0.00 31 1018.8
20260902205008 26 10 1.6 3.2 0.00 0.00 0.00 31 1018.8
20260902204007 26 10 3.2 4.8 0.00 0.00 0.00 31 1018.6
20260902203507 27 10 3.2 4.8 0.00 0.00 0.00 30 1018.7
20260902203008 27 10 3.2 4.8 0.00 0.00 0.00 30 1018.7
20260902202508 27 10 3.2 4.8 0.00 0.00 0.00 30 1018.7
20260902202006 27 10 1.6 3.2 0.00 0.00 0.00 30 1018.6
20260902201507 27 10 3.2 4.8 0.00 0.00 0.00 30 1018.5
20260902200507 27 10 3.2 4.8 0.00 0.00 0.00 29 1018.4
20260902200007 27 10 3.2 4.8 0.00 0.00 0.00 29 1018.4
20260902194507 28 202 0.0 0.0 0.00 0.00 0.00 28 1018.2
20260902194007 28 202 0.0 0.0 0.00 0.00 0.00 28 1018.1
20260902193507 29 202 0.0 0.0 0.00 0.00 0.00 27 1018.0
20260902193007 30 202 0.0 0.0 0.00 0.00 0.00 26 1017.7
20260902191507 31 202 0.0 0.0 0.00 0.00 0.00 26 1017.7
20260902190507 31 202 0.0 0.0 0.00 0.00 0.00 26 1017.7
20260902190008 31 202 0.0 0.0 0.00 0.00 0.00 25 1017.7
20260902185507 32 202 0.0 0.0 0.00 0.00 0.00 25 1017.6
20260902185007 32 202 0.0 0.0 0.00 0.00 0.00 25 1017.7
20260902184507 32 202 1.6 4.8 0.00 0.00 0.00 24 1017.6
20260902184007 32 202 1.6 4.8 0.00 0.00 0.00 24 1017.5
20260902183507 32 203 3.2 4.8 0.00 0.00 0.00 24 1017.4
20260902182507 33 201 1.6 4.8 0.00 0.00 0.00 23 1017.3
20260902182007 33 199 4.8 8.0 0.00 0.00 0.00 23 1017.3
20260902181519 33 206 1.6 8.0 0.00 0.00 0.00 22 1017.3
20260902181009 33 239 0.0 3.2 0.00 0.00 0.00 23 1017.3
20260902180513 33 214 0.0 9.7 0.00 0.00 0.00 23 1017.3
20260902180008 33 202 4.8 8.0 0.00 0.00 0.00 22 1017.3
20260902175507 34 194 3.2 4.8 0.00 0.00 0.00 22 1017.3
20260902175006 34 231 0.0 4.8 0.00 0.00 0.00 22 1017.3
20260902174509 34 255 3.2 8.0 0.00 0.00 0.00 22 1017.3
20260902174007 34 202 4.8 9.7 0.00 0.00 0.00 22 1017.3
20260902173507 34 252 4.8 8.0 0.00 0.00 0.00 22 1017.3
20260902173007 34 256 6.4 9.7 0.00 0.00 0.00 22 1017.3
20260902172506 34 197 4.8 12.9 0.00 0.00 0.00 22 1017.2
20260902172007 34 246 3.2 11.3 0.00 0.00 0.00 22 1017.3
20260902171507 34 236 8.0 14.5 0.00 0.00 0.00 22 1017.3
20260902165506 34 215 4.8 11.3 0.00 0.00 0.00 22 1017.3
20260902165007 34 254 4.8 11.3 0.00 0.00 0.00 22 1017.2
20260902164507 34 201 8.0 12.9 0.00 0.00 0.00 22 1017.2
20260902164007 34 244 8.0 16.1 0.00 0.00 0.00 22 1017.2
20260902163507 33 250 9.7 19.3 0.00 0.00 0.00 22 1017.3
20260902163007 33 208 6.4 12.9 0.00 0.00 0.00 23 1017.2
20260902162507 33 205 6.4 14.5 0.00 0.00 0.00 23 1017.3
20260902162006 33 172 9.7 14.5 0.00 0.00 0.00 23 1017.3
20260902161507 33 188 6.4 14.5 0.00 0.00 0.00 23 1017.4
20260902155507 34 213 4.8 19.3 0.00 0.00 0.00 23 1017.6
20260902155007 33 219 4.8 19.3 0.00 0.00 0.00 23 1017.7
20260902154507 34 194 8.0 14.5 0.00 0.00 0.00 22 1017.7
20260902154007 34 240 8.0 14.5 0.00 0.00 0.00 22 1017.7
20260902153507 34 229 6.4 16.1 0.00 0.00 0.00 23 1017.8
20260902153007 34 216 6.4 11.3 0.00 0.00 0.00 22 1017.8
20260902152007 34 223 4.8 16.1 0.00 0.00 0.00 22 1017.8
20260902151006 33 290 6.4 14.5 0.00 0.00 0.00 23 1018.0
20260902145506 33 230 9.7 19.3 0.00 0.00 0.00 23 1018.1
20260902145006 33 339 4.8 14.5 0.00 0.00 0.00 23 1018.0
20260902144507 33 198 8.0 12.9 0.00 0.00 0.00 23 1018.1
20260902144007 33 212 6.4 14.5 0.00 0.00 0.00 23 1018.1
20260902143507 33 311 6.4 12.9 0.00 0.00 0.00 22 1018.2
20260902143007 33 288 3.2 12.9 0.00 0.00 0.00 21 1018.3
20260902142507 33 264 3.2 16.1 0.00 0.00 0.00 23 1018.4
20260902142007 33 211 8.0 19.3 0.00 0.00 0.00 23 1018.4
20260902141506 33 259 1.6 14.5 0.00 0.00 0.00 24 1018.4
20260902141007 32 3 3.2 12.9 0.00 0.00 0.00 25 1018.4
20260902140507 33 287 8.0 16.1 0.00 0.00 0.00 25 1018.5
20260902140007 33 236 11.3 19.3 0.00 0.00 0.00 25 1018.5
20260902135506 32 214 4.8 9.7 0.00 0.00 0.00 25 1018.6
20260902135006 32 181 6.4 16.1 0.00 0.00 0.00 25 1018.7
20260902134507 32 156 8.0 19.3 0.00 0.00 0.00 26 1018.7
20260902134006 32 214 4.8 19.3 0.00 0.00 0.00 26 1018.6
20260902133007 32 87 6.4 11.3 0.00 0.00 0.00 26 1018.7
20260902132506 32 195 6.4 14.5 0.00 0.00 0.00 26 1018.8
20260902132007 32 192 8.0 14.5 0.00 0.00 0.00 25 1018.7
20260902131006 32 246 4.8 9.7 0.00 0.00 0.00 25 1018.8
20260902130507 32 199 8.0 11.3 0.00 0.00 0.00 24 1018.8
20260902130007 32 230 3.2 11.3 0.00 0.00 0.00 25 1018.8
20260902125507 32 227 9.7 14.5 0.00 0.00 0.00 24 1018.9
20260902125007 32 221 4.8 12.9 0.00 0.00 0.00 24 1018.9
20260902124007 31 194 9.7 19.3 0.00 0.00 0.00 24 1019.0
20260902123507 31 193 8.0 12.9 0.00 0.00 0.00 24 1019.0
20260902123007 31 121 1.6 14.5 0.00 0.00 0.00 25 1019.0
20260902122006 31 176 6.4 11.3 0.00 0.00 0.00 27 1019.1
20260902121506 31 265 6.4 12.9 0.00 0.00 0.00 26 1019.2
20260902121007 31 201 4.8 12.9 0.00 0.00 0.00 28 1019.2
20260902120506 31 211 6.4 12.9 0.00 0.00 0.00 28 1019.3
20260902120007 31 52 3.2 4.8 0.00 0.00 0.00 29 1019.2
20260902115007 30 139 4.8 14.5 0.00 0.00 0.00 28 1019.3
20260902114506 30 170 8.0 12.9 0.00 0.00 0.00 30 1019.5
20260902114006 30 260 0.0 4.8 0.00 0.00 0.00 32 1019.5
20260902113007 30 228 4.8 9.7 0.00 0.00 0.00 33 1019.8
20260902112507 30 298 4.8 11.3 0.00 0.00 0.00 34 1019.8
20260902112006 29 214 4.8 11.3 0.00 0.00 0.00 35 1019.8
20260902111506 29 172 1.6 9.7 0.00 0.00 0.00 35 1019.9
20260902111006 29 183 3.2 8.0 0.00 0.00 0.00 33 1019.9
20260902110506 28 194 1.6 8.0 0.00 0.00 0.00 36 1020.0
20260902110008 28 194 1.6 4.8 0.00 0.00 0.00 37 1020.0
20260902105007 28 70 0.0 0.0 0.00 0.00 0.00 41 1020.0
20260902104006 28 227 3.2 4.8 0.00 0.00 0.00 42 1020.0
20260902103507 28 225 4.8 8.0 0.00 0.00 0.00 43 1020.0
20260902103007 27 292 3.2 4.8 0.00 0.00 0.00 44 1020.0
20260902102507 27 284 1.6 4.8 0.00 0.00 0.00 45 1020.0
20260902101506 27 188 3.2 8.0 0.00 0.00 0.00 49 1020.1
20260902100507 27 246 3.2 9.7 0.00 0.00 0.00 51 1020.2
20260902100008 27 220 3.2 11.3 0.00 0.00 0.00 51 1020.2
20260902095508 26 137 1.6 4.8 0.00 0.00 0.00 50 1020.2
20260902094508 26 103 1.6 8.0 0.00 0.00 0.00 52 1020.2
20260902094008 26 191 4.8 9.7 0.00 0.00 0.00 53 1020.2
20260902093508 25 193 3.2 8.0 0.00 0.00 0.00 55 1020.2
20260902093008 25 169 3.2 8.0 0.00 0.00 0.00 55 1020.1
20260902092509 25 162 4.8 9.7 0.00 0.00 0.00 56 1020.1
20260902092008 25 190 4.8 8.0 0.00 0.00 0.00 57 1020.1
20260902091008 25 189 3.2 9.7 0.00 0.00 0.00 56 1020.0
20260902090508 25 204 3.2 11.3 0.00 0.00 0.00 56 1020.0
20260902090008 24 177 3.2 11.3 0.00 0.00 0.00 56 1020.0
20260902085507 24 213 4.8 9.7 0.00 0.00 0.00 56 1020.0
20260902084008 24 188 1.6 4.8 0.00 0.00 0.00 53 1020.0
20260902083508 24 195 3.2 4.8 0.00 0.00 0.00 54 1019.9
20260902083009 24 182 0.0 0.0 0.00 0.00 0.00 54 1019.8
20260902082008 23 75 0.0 3.2 0.00 0.00 0.00 54 1019.8
20260902081508 23 75 1.6 4.8 0.00 0.00 0.00 54 1019.8
20260902081008 22 75 1.6 4.8 0.00 0.00 0.00 54 1019.7
20260902080508 22 31 3.2 4.8 0.00 0.00 0.00 55 1019.7
20260902080011 22 343 1.6 4.8 0.00 0.00 0.00 54 1019.6
20260902075507 22 5 3.2 4.8 0.00 0.00 0.00 54 1019.6
20260902075008 21 5 3.2 4.8 0.00 0.00 0.00 53 1019.4
20260902074508 21 20 1.6 3.2 0.00 0.00 0.00 53 1019.5
20260902073508 21 59 0.0 0.0 0.00 0.00 0.00 52 1019.5
20260902073008 21 59 0.0 0.0 0.00 0.00 0.00 52 1019.5
20260902071508 21 22 0.0 0.0 0.00 0.00 0.00 53 1019.5
20260902071008 20 22 0.0 0.0 0.00 0.00 0.00 54 1019.4
20260902070508 20 22 0.0 0.0 0.00 0.00 0.00 55 1019.2
20260902070009 19 22 0.0 0.0 0.00 0.00 0.00 56 1019.2
20260902065508 18 22 0.0 4.8 0.00 0.00 0.00 58 1019.1
20260902065008 18 22 3.2 4.8 0.00 0.00 0.00 58 1019.0
20260902064508 18 22 3.2 4.8 0.00 0.00 0.00 58 1019.0
20260902063508 17 22 0.0 0.0 0.00 0.00 0.00 59 1018.9
20260902063007 17 22 0.0 0.0 0.00 0.00 0.00 59 1019.0
20260902062508 16 22 0.0 0.0 0.00 0.00 0.00 61 1018.9
20260902062008 16 22 0.0 0.0 0.00 0.00 0.00 57 1018.9
20260902061509 17 22 0.0 0.0 0.00 0.00 0.00 56 1018.9
20260902061008 17 22 0.0 0.0 0.00 0.00 0.00 55 1018.9
20260902060508 17 22 0.0 0.0 0.00 0.00 0.00 54 1018.9
20260902060008 18 22 0.0 0.0 0.00 0.00 0.00 55 1018.9
20260902055508 18 22 0.0 0.0 0.00 0.00 0.00 55 1018.8
20260902055008 17 22 0.0 0.0 0.00 0.00 0.00 56 1018.8
20260902054007 17 22 0.0 0.0 0.00 0.00 0.00 55 1018.6
20260902053508 17 22 0.0 0.0 0.00 0.00 0.00 54 1018.4
20260902053008 18 22 0.0 0.0 0.00 0.00 0.00 54 1018.4
20260902052508 18 22 0.0 3.2 0.00 0.00 0.00 55 1018.4
20260902052008 18 17 4.8 4.8 0.00 0.00 0.00 54 1018.3
20260902051508 18 12 4.8 4.8 0.00 0.00 0.00 54 1018.3
20260902051008 18 24 4.8 4.8 0.00 0.00 0.00 54 1018.3
20260902050508 18 24 4.8 4.8 0.00 0.00 0.00 53 1018.2
20260902050009 18 24 1.6 3.2 0.00 0.00 0.00 52 1018.1
20260902045508 18 24 1.6 3.2 0.00 0.00 0.00 52 1018.1
20260902044508 18 24 3.2 4.8 0.00 0.00 0.00 53 1018.1
20260902044008 18 18 4.8 8.0 0.00 0.00 0.00 52 1017.9
20260902043508 18 10 6.4 9.7 0.00 0.00 0.00 51 1017.9
20260902043008 18 8 8.0 11.3 0.00 0.00 0.00 51 1017.9
20260902042507 18 2 4.8 8.0 0.00 0.00 0.00 50 1017.8
20260902041007 18 13 3.2 4.8 0.00 0.00 0.00 49 1017.8
20260902040507 18 13 3.2 4.8 0.00 0.00 0.00 49 1017.8
20260902040008 18 13 3.2 4.8 0.00 0.00 0.00 49 1017.9
20260902035507 18 11 4.8 8.0 0.00 0.00 0.00 47 1017.9
20260902035008 18 11 4.8 8.0 0.00 0.00 0.00 47 1018.0
20260902034507 18 11 4.8 8.0 0.00 0.00 0.00 46 1017.9
20260902034008 18 11 4.8 8.0 0.00 0.00 0.00 46 1017.9
20260902033508 18 11 3.2 8.0 0.00 0.00 0.00 44 1017.9
20260902033008 18 11 4.8 8.0 0.00 0.00 0.00 44 1017.9
20260902032508 18 11 4.8 4.8 0.00 0.00 0.00 44 1017.9
20260902032008 18 11 0.0 0.0 0.00 0.00 0.00 43 1018.0
20260902031007 19 11 0.0 0.0 0.00 0.00 0.00 42 1018.0
20260902030508 19 11 1.6 3.2 0.00 0.00 0.00 41 1017.9
20260902030008 20 11 1.6 3.2 0.00 0.00 0.00 41 1017.9
20260902025507 20 11 3.2 4.8 0.00 0.00 0.00 40 1017.9
20260902025008 20 11 4.8 4.8 0.00 0.00 0.00 41 1017.8
20260902024507 19 11 4.8 4.8 0.00 0.00 0.00 41 1017.7
20260902024008 19 11 4.8 4.8 0.00 0.00 0.00 41 1017.7
20260902023508 19 11 0.0 0.0 0.00 0.00 0.00 39 1017.7
20260902022507 19 11 0.0 0.0 0.00 0.00 0.00 38 1017.5
20260902021507 20 11 0.0 4.8 0.00 0.00 0.00 38 1017.6
20260902021008 20 11 1.6 4.8 0.00 0.00 0.00 37 1017.7
20260902020508 20 11 4.8 8.0 0.00 0.00 0.00 37 1017.5
20260902020008 19 19 4.8 8.0 0.00 0.00 0.00 37 1017.6
20260902015507 19 16 4.8 8.0 0.00 0.00 0.00 37 1017.6
20260902015008 19 20 3.2 8.0 0.00 0.00 0.00 37 1017.6
20260902014507 19 23 4.8 8.0 0.00 0.00 0.00 35 1017.5
20260902014008 20 12 3.2 4.8 0.00 0.00 0.00 36 1017.4
20260902013008 20 19 4.8 4.8 0.00 0.00 0.00 36 1017.5
20260902012508 20 24 4.8 8.0 0.00 0.00 0.00 35 1017.6
20260902011508 20 14 8.0 11.3 0.00 0.00 0.00 33 1017.5
20260902011007 20 25 4.8 8.0 0.00 0.00 0.00 33 1017.5
20260902010507 20 19 8.0 11.3 0.00 0.00 0.00 33 1017.4
20260902005519 20 15 3.2 4.8 0.00 0.00 0.00 32 1017.4
20260902005018 21 15 0.0 0.0 0.00 0.00 0.00 33 1017.4
20260902004508 21 15 0.0 0.0 0.00 0.00 0.00 32 1017.4
20260902003518 21 15 0.0 3.2 0.00 0.00 0.00 31 1017.4
20260902003008 22 15 1.6 4.8 0.00 0.00 0.00 31 1017.5
20260902002507 22 15 4.8 4.8 0.00 0.00 0.00 30 1017.5
20260902002018 22 15 3.2 4.8 0.00 0.00 0.00 30 1017.4
20260902001519 22 15 3.2 4.8 0.00 0.00 0.00 30 1017.5
20260902001018 21 7 4.8 4.8 0.00 0.00 0.00 31 1017.5
20260902000519 21 351 3.2 4.8 0.00 0.00 0.00 31 1017.6
20260902000019 21 351 3.2 4.8 0.00 0.00 0.00 31 1017.7
20260901235511 22 17 6.4 8.0 0.00 0.00 0.00 30 1017.7
20260901235018 22 19 6.4 8.0 0.00 0.00 0.00 30 1017.8
20260901234518 21 355 4.8 4.8 0.00 0.00 0.00 31 1017.9
20260901233519 21 18 8.0 9.7 0.00 0.00 0.00 32 1017.8
20260901232018 22 18 8.0 11.3 0.00 0.00 0.00 30 1017.8
20260901231508 22 28 0.0 0.0 0.00 0.00 0.00 30 1017.8
20260901231018 22 125 0.0 0.0 0.00 0.00 0.00 30 1017.8
20260901230518 23 125 0.0 4.8 0.00 0.00 0.00 30 1017.7
20260901230019 22 116 3.2 4.8 0.00 0.00 0.00 30 1017.7
20260901225518 22 84 3.2 4.8 0.00 0.00 0.00 31 1017.6
20260901225019 22 37 1.6 4.8 0.00 0.00 0.00 30 1017.3
20260901224520 22 37 0.0 0.0 0.00 0.00 0.00 30 1017.2
20260901224018 22 37 0.0 0.0 0.00 0.00 0.00 30 1017.1
20260901223522 22 37 0.0 1.6 0.00 0.00 0.00 30 1017.1
20260901223019 23 37 1.6 3.2 0.00 0.00 0.00 30 1017.0
20260901222518 23 37 3.2 4.8 0.00 0.00 0.00 29 1017.1
20260901222018 23 66 0.0 0.0 0.00 0.00 0.00 29 1017.0
20260901221519 23 66 1.6 3.2 0.00 0.00 0.00 28 1017.1
20260901221018 23 66 1.6 4.8 0.00 0.00 0.00 28 1017.0
20260901220019 23 101 3.2 8.0 0.00 0.00 0.00 29 1016.9
20260901215518 23 43 3.2 8.0 0.00 0.00 0.00 28 1016.9
20260901215018 24 306 0.0 3.2 0.00 0.00 0.00 27 1016.9
20260901214518 24 308 0.0 3.2 0.00 0.00 0.00 27 1016.8
20260901214018 25 311 3.2 9.7 0.00 0.00 0.00 26 1016.7
20260901213519 25 307 8.0 12.9 0.00 0.00 0.00 25 1016.8
20260901213007 26 313 9.7 12.9 0.00 0.00 0.00 25 1016.7
20260901212518 26 316 9.7 12.9 0.00 0.00 0.00 24 1016.6
20260901212018 26 316 9.7 12.9 0.00 0.00 0.00 25 1016.6
20260901211007 26 309 9.7 12.9 0.00 0.00 0.00 25 1016.6
20260901210518 26 307 8.0 11.3 0.00 0.00 0.00 24 1016.5
20260901210018 26 307 8.0 11.3 0.00 0.00 0.00 24 1016.5